Year,Month,Day,Hour,Minute,Value (Times are PST for windspeed in km/hr)
2015,01,18,00,00,6.80
2015,01,18,00,01,6.60
2015,01,18,00,02,3.40
2015,01,18,00,03,4.10
2015,01,18,00,04,4.30
2015,01,18,00,05,3.90
2015,01,18,00,06,5.20
2015,01,18,00,07,5.10
2015,01,18,00,08,7.30
2015,01,18,00,09,8.80
2015,01,18,00,10,10.30
2015,01,18,00,11,10.60
2015,01,18,00,12,9.90
2015,01,18,00,13,5.50
2015,01,18,00,14,9.00
2015,01,18,00,15,6.60
2015,01,18,00,16,5.60
2015,01,18,00,17,7.10
2015,01,18,00,18,6.80
2015,01,18,00,19,6.00
2015,01,18,00,20,5.40
2015,01,18,00,21,6.40
2015,01,18,00,22,7.00
2015,01,18,00,23,5.30
2015,01,18,00,24,3.80
2015,01,18,00,25,6.40
2015,01,18,00,26,6.70
2015,01,18,00,27,4.80
2015,01,18,00,28,7.10
2015,01,18,00,29,5.30
2015,01,18,00,30,5.20
2015,01,18,00,31,6.70
2015,01,18,00,32,5.90
2015,01,18,00,33,6.50
2015,01,18,00,34,5.10
2015,01,18,00,35,4.50
2015,01,18,00,36,3.70
2015,01,18,00,37,4.40
2015,01,18,00,38,3.10
2015,01,18,00,39,1.50
2015,01,18,00,40,1.50
2015,01,18,00,41,3.90
2015,01,18,00,42,2.10
2015,01,18,00,43,2.10
2015,01,18,00,44,4.10
2015,01,18,00,45,4.10
2015,01,18,00,46,3.70
2015,01,18,00,47,4.20
2015,01,18,00,48,5.90
2015,01,18,00,49,5.60
2015,01,18,00,50,5.30
2015,01,18,00,51,8.00
2015,01,18,00,52,9.70
2015,01,18,00,53,6.30
2015,01,18,00,54,7.30
2015,01,18,00,55,8.60
2015,01,18,00,56,7.40
2015,01,18,00,57,6.20
2015,01,18,00,58,8.20
2015,01,18,00,59,8.10
2015,01,18,01,00,4.30
2015,01,18,01,01,4.50
2015,01,18,01,02,6.10
2015,01,18,01,03,6.00
2015,01,18,01,04,8.70
2015,01,18,01,05,6.90
2015,01,18,01,06,5.20
2015,01,18,01,07,8.00
2015,01,18,01,08,7.20
2015,01,18,01,09,6.40
2015,01,18,01,10,4.60
2015,01,18,01,11,4.50
2015,01,18,01,12,3.90
2015,01,18,01,13,2.80
2015,01,18,01,14,3.80
2015,01,18,01,15,8.60
2015,01,18,01,16,12.20
2015,01,18,01,17,6.80
2015,01,18,01,18,6.40
2015,01,18,01,19,5.10
2015,01,18,01,20,3.70
2015,01,18,01,21,2.10
2015,01,18,01,22,3.70
2015,01,18,01,23,4.80
2015,01,18,01,24,3.30
2015,01,18,01,25,2.50
2015,01,18,01,26,4.00
2015,01,18,01,27,4.10
2015,01,18,01,28,3.60
2015,01,18,01,29,4.20
2015,01,18,01,30,5.00
2015,01,18,01,31,3.40
2015,01,18,01,32,5.60
2015,01,18,01,33,8.30
2015,01,18,01,34,8.00
2015,01,18,01,35,8.30
2015,01,18,01,36,9.20
2015,01,18,01,37,8.90
2015,01,18,01,38,9.30
2015,01,18,01,39,15.40
2015,01,18,01,40,21.90
2015,01,18,01,41,23.30
2015,01,18,01,42,23.40
2015,01,18,01,43,19.40
2015,01,18,01,44,20.20
2015,01,18,01,45,23.90
2015,01,18,01,46,24.60
2015,01,18,01,47,29.60
2015,01,18,01,48,24.50
2015,01,18,01,49,28.90
2015,01,18,01,50,28.60
2015,01,18,01,51,21.70
2015,01,18,01,52,34.60
2015,01,18,01,53,31.30
2015,01,18,01,54,25.40
2015,01,18,01,55,25.80
2015,01,18,01,56,30.10
2015,01,18,01,57,38.60
2015,01,18,01,58,33.10
2015,01,18,01,59,31.20
2015,01,18,02,00,18.90
2015,01,18,02,01,31.80
2015,01,18,02,02,28.30
2015,01,18,02,03,28.20
2015,01,18,02,04,27.70
2015,01,18,02,05,35.60
2015,01,18,02,06,26.30
2015,01,18,02,07,34.80
2015,01,18,02,08,27.40
2015,01,18,02,09,28.50
2015,01,18,02,10,31.20
2015,01,18,02,11,26.70
2015,01,18,02,12,21.70
2015,01,18,02,13,22.20
2015,01,18,02,14,29.80
2015,01,18,02,15,26.10
2015,01,18,02,16,30.00
2015,01,18,02,17,28.30
2015,01,18,02,18,23.80
2015,01,18,02,19,33.10
2015,01,18,02,20,27.80
2015,01,18,02,21,27.00
2015,01,18,02,22,25.50
2015,01,18,02,23,23.30
2015,01,18,02,24,24.80
2015,01,18,02,25,23.10
2015,01,18,02,26,23.30
2015,01,18,02,27,23.80
2015,01,18,02,28,17.00
2015,01,18,02,29,25.00
2015,01,18,02,30,22.60
2015,01,18,02,31,23.60
2015,01,18,02,32,16.20
2015,01,18,02,33,14.90
2015,01,18,02,34,18.90
2015,01,18,02,35,12.80
2015,01,18,02,36,12.70
2015,01,18,02,37,17.70
2015,01,18,02,38,14.30
2015,01,18,02,39,16.90
2015,01,18,02,40,10.40
2015,01,18,02,41,10.40
2015,01,18,02,42,17.50
2015,01,18,02,43,16.50
2015,01,18,02,44,20.90
2015,01,18,02,45,18.90
2015,01,18,02,46,18.90
2015,01,18,02,47,18.50
2015,01,18,02,48,11.50
2015,01,18,02,49,18.00
2015,01,18,02,50,10.00
2015,01,18,02,51,14.00
2015,01,18,02,52,12.40
2015,01,18,02,53,11.90
2015,01,18,02,54,11.10
2015,01,18,02,55,9.80
2015,01,18,02,56,16.60
2015,01,18,02,57,10.20
2015,01,18,02,58,11.80
2015,01,18,02,59,16.00
2015,01,18,03,00,11.10
2015,01,18,03,01,11.60
2015,01,18,03,02,14.50
2015,01,18,03,03,12.50
2015,01,18,03,04,11.00
2015,01,18,03,05,9.00
2015,01,18,03,06,9.90
2015,01,18,03,07,15.70
2015,01,18,03,08,14.60
2015,01,18,03,09,16.20
2015,01,18,03,10,22.80
2015,01,18,03,11,18.60
2015,01,18,03,12,20.60
2015,01,18,03,13,20.00
2015,01,18,03,14,22.20
2015,01,18,03,15,19.20
2015,01,18,03,16,12.30
2015,01,18,03,17,10.10
2015,01,18,03,18,8.20
2015,01,18,03,19,12.30
2015,01,18,03,20,23.40
2015,01,18,03,21,22.50
2015,01,18,03,22,16.00
2015,01,18,03,23,16.00
2015,01,18,03,24,14.10
2015,01,18,03,25,12.90
2015,01,18,03,26,20.30
2015,01,18,03,27,14.50
2015,01,18,03,28,10.30
2015,01,18,03,29,10.40
2015,01,18,03,30,10.40
2015,01,18,03,31,12.60
2015,01,18,03,32,13.50
2015,01,18,03,33,10.00
2015,01,18,03,34,10.50
2015,01,18,03,35,9.60
2015,01,18,03,36,12.10
2015,01,18,03,37,9.40
2015,01,18,03,38,9.50
2015,01,18,03,39,11.00
2015,01,18,03,40,7.70
2015,01,18,03,41,20.80
2015,01,18,03,42,14.80
2015,01,18,03,43,9.40
2015,01,18,03,44,11.80
2015,01,18,03,45,9.40
2015,01,18,03,46,7.90
2015,01,18,03,47,12.00
2015,01,18,03,48,11.90
2015,01,18,03,49,10.10
2015,01,18,03,50,14.40
2015,01,18,03,51,7.60
2015,01,18,03,52,7.60
2015,01,18,03,53,11.60
2015,01,18,03,54,9.20
2015,01,18,03,55,13.60
2015,01,18,03,56,11.90
2015,01,18,03,57,10.00
2015,01,18,03,58,13.60
2015,01,18,03,59,17.10
2015,01,18,04,00,12.00
2015,01,18,04,01,10.00
2015,01,18,04,02,13.60
2015,01,18,04,03,14.10
2015,01,18,04,04,11.60
2015,01,18,04,05,11.30
2015,01,18,04,06,12.00
2015,01,18,04,07,12.90
2015,01,18,04,08,12.70
2015,01,18,04,09,10.10
2015,01,18,04,10,13.00
2015,01,18,04,11,10.60
2015,01,18,04,12,8.50
2015,01,18,04,13,8.00
2015,01,18,04,14,7.30
2015,01,18,04,15,8.30
2015,01,18,04,16,7.60
2015,01,18,04,17,11.70
2015,01,18,04,18,14.10
2015,01,18,04,19,11.90
2015,01,18,04,20,10.60
2015,01,18,04,21,7.20
2015,01,18,04,22,9.30
2015,01,18,04,23,8.90
2015,01,18,04,24,9.50
2015,01,18,04,25,11.30
2015,01,18,04,26,7.80
2015,01,18,04,27,9.00
2015,01,18,04,28,9.10
2015,01,18,04,29,6.50
2015,01,18,04,30,8.00
2015,01,18,04,31,5.50
2015,01,18,04,32,6.70
2015,01,18,04,33,7.10
2015,01,18,04,34,4.90
2015,01,18,04,35,4.30
2015,01,18,04,36,3.50
2015,01,18,04,37,3.00
2015,01,18,04,38,4.80
2015,01,18,04,39,5.10
2015,01,18,04,40,6.20
2015,01,18,04,41,6.30
2015,01,18,04,42,5.60
2015,01,18,04,43,7.90
2015,01,18,04,44,8.40
2015,01,18,04,45,5.40
2015,01,18,04,46,9.70
2015,01,18,04,47,6.40
2015,01,18,04,48,7.30
2015,01,18,04,49,6.40
2015,01,18,04,50,6.90
2015,01,18,04,51,4.80
2015,01,18,04,52,7.10
2015,01,18,04,53,6.30
2015,01,18,04,54,8.10
2015,01,18,04,55,6.70
2015,01,18,04,56,9.70
2015,01,18,04,57,8.90
2015,01,18,04,58,5.10
2015,01,18,04,59,3.00
2015,01,18,05,00,3.40
2015,01,18,05,01,4.00
2015,01,18,05,02,9.50
2015,01,18,05,03,8.30
2015,01,18,05,04,7.70
2015,01,18,05,05,5.70
2015,01,18,05,06,3.70
2015,01,18,05,07,6.20
2015,01,18,05,08,10.40
2015,01,18,05,09,10.90
2015,01,18,05,10,16.60
2015,01,18,05,11,19.90
2015,01,18,05,12,15.70
2015,01,18,05,13,15.50
2015,01,18,05,14,15.90
2015,01,18,05,15,19.60
2015,01,18,05,16,17.40
2015,01,18,05,17,12.20
2015,01,18,05,18,17.20
2015,01,18,05,19,8.60
2015,01,18,05,20,8.60
2015,01,18,05,21,11.10
2015,01,18,05,22,8.90
2015,01,18,05,23,6.90
2015,01,18,05,24,3.50
2015,01,18,05,25,6.30
2015,01,18,05,26,6.80
2015,01,18,05,27,7.50
2015,01,18,05,28,13.50
2015,01,18,05,29,13.90
2015,01,18,05,30,11.00
2015,01,18,05,31,11.70
2015,01,18,05,32,13.70
2015,01,18,05,33,15.10
2015,01,18,05,34,12.10
2015,01,18,05,35,12.80
2015,01,18,05,36,14.90
2015,01,18,05,37,31.50
2015,01,18,05,38,25.70
2015,01,18,05,39,28.50
2015,01,18,05,40,31.40
2015,01,18,05,41,26.80
2015,01,18,05,42,26.30
2015,01,18,05,43,26.00
2015,01,18,05,44,24.70
2015,01,18,05,45,19.90
2015,01,18,05,46,22.90
2015,01,18,05,47,28.40
2015,01,18,05,48,29.80
2015,01,18,05,49,30.30
2015,01,18,05,50,24.30
2015,01,18,05,51,26.60
2015,01,18,05,52,28.10
2015,01,18,05,53,31.70
2015,01,18,05,54,23.30
2015,01,18,05,55,24.70
2015,01,18,05,56,31.10
2015,01,18,05,57,21.20
2015,01,18,05,58,29.90
2015,01,18,05,59,39.80
2015,01,18,06,00,24.40
2015,01,18,06,01,24.70
2015,01,18,06,02,36.20
2015,01,18,06,03,26.70
2015,01,18,06,04,30.10
2015,01,18,06,05,28.70
2015,01,18,06,06,27.70
2015,01,18,06,07,27.80
2015,01,18,06,08,23.30
2015,01,18,06,09,25.20
2015,01,18,06,10,18.70
2015,01,18,06,11,22.70
2015,01,18,06,12,20.30
2015,01,18,06,13,20.80
2015,01,18,06,14,15.70
2015,01,18,06,15,26.60
2015,01,18,06,16,27.10
2015,01,18,06,17,34.10
2015,01,18,06,18,22.50
2015,01,18,06,19,23.60
2015,01,18,06,20,22.20
2015,01,18,06,21,29.60
2015,01,18,06,22,21.40
2015,01,18,06,23,20.30
2015,01,18,06,24,18.10
2015,01,18,06,25,35.20
2015,01,18,06,26,27.10
2015,01,18,06,27,18.50
2015,01,18,06,28,34.70
2015,01,18,06,29,39.60
2015,01,18,06,30,30.90
2015,01,18,06,31,37.90
2015,01,18,06,32,30.40
2015,01,18,06,33,30.30
2015,01,18,06,34,28.70
2015,01,18,06,35,29.80
2015,01,18,06,36,29.30
2015,01,18,06,37,27.70
2015,01,18,06,38,19.80
2015,01,18,06,39,23.30
2015,01,18,06,40,23.40
2015,01,18,06,41,27.40
2015,01,18,06,42,32.50
2015,01,18,06,43,38.20
2015,01,18,06,44,35.00
2015,01,18,06,45,38.00
2015,01,18,06,46,31.50
2015,01,18,06,47,24.10
2015,01,18,06,48,38.10
2015,01,18,06,49,45.30
2015,01,18,06,50,34.90
2015,01,18,06,51,31.30
2015,01,18,06,52,31.80
2015,01,18,06,53,27.30
2015,01,18,06,54,24.50
2015,01,18,06,55,30.70
2015,01,18,06,56,29.60
2015,01,18,06,57,25.80
2015,01,18,06,58,34.10
2015,01,18,06,59,35.80
2015,01,18,07,00,35.90
2015,01,18,07,01,27.60
2015,01,18,07,02,38.90
2015,01,18,07,03,25.50
2015,01,18,07,04,29.30
2015,01,18,07,05,24.20
2015,01,18,07,06,30.40
2015,01,18,07,07,33.90
2015,01,18,07,08,32.30
2015,01,18,07,09,30.10
2015,01,18,07,10,30.60
2015,01,18,07,11,36.60
2015,01,18,07,12,33.10
2015,01,18,07,13,27.00
2015,01,18,07,14,21.70
2015,01,18,07,15,35.00
2015,01,18,07,16,29.80
2015,01,18,07,17,34.20
2015,01,18,07,18,30.20
2015,01,18,07,19,28.10
2015,01,18,07,20,45.10
2015,01,18,07,21,41.30
2015,01,18,07,22,32.60
2015,01,18,07,23,26.00
2015,01,18,07,24,28.90
2015,01,18,07,25,30.70
2015,01,18,07,26,31.50
2015,01,18,07,27,46.20
2015,01,18,07,28,31.60
2015,01,18,07,29,34.10
2015,01,18,07,30,26.30
2015,01,18,07,31,35.70
2015,01,18,07,32,29.30
2015,01,18,07,33,24.40
2015,01,18,07,34,25.40
2015,01,18,07,35,28.60
2015,01,18,07,36,35.90
2015,01,18,07,37,33.10
2015,01,18,07,38,25.90
2015,01,18,07,39,34.70
2015,01,18,07,40,32.90
2015,01,18,07,41,23.40
2015,01,18,07,42,14.90
2015,01,18,07,43,23.30
2015,01,18,07,44,20.30
2015,01,18,07,45,25.80
2015,01,18,07,46,35.60
2015,01,18,07,47,41.60
2015,01,18,07,48,28.10
2015,01,18,07,49,31.10
2015,01,18,07,50,34.60
2015,01,18,07,51,32.00
2015,01,18,07,52,32.50
2015,01,18,07,53,32.80
2015,01,18,07,54,33.40
2015,01,18,07,55,45.10
2015,01,18,07,56,35.40
2015,01,18,07,57,24.50
2015,01,18,07,58,41.50
2015,01,18,07,59,41.40
2015,01,18,08,00,34.10
2015,01,18,08,01,34.70
2015,01,18,08,02,32.80
2015,01,18,08,03,47.10
2015,01,18,08,04,49.60
2015,01,18,08,05,47.10
2015,01,18,08,06,42.60
2015,01,18,08,07,39.00
2015,01,18,08,08,32.20
2015,01,18,08,09,25.20
2015,01,18,08,10,32.30
2015,01,18,08,11,30.10
2015,01,18,08,12,42.10
2015,01,18,08,13,29.60
2015,01,18,08,14,28.00
2015,01,18,08,15,32.50
2015,01,18,08,16,38.50
2015,01,18,08,17,31.50
2015,01,18,08,18,45.40
2015,01,18,08,19,38.30
2015,01,18,08,20,34.50
2015,01,18,08,21,37.00
2015,01,18,08,22,48.10
2015,01,18,08,23,39.30
2015,01,18,08,24,28.50
2015,01,18,08,25,28.20
2015,01,18,08,26,42.70
2015,01,18,08,27,41.50
2015,01,18,08,28,34.50
2015,01,18,08,29,39.30
2015,01,18,08,30,40.90
2015,01,18,08,31,45.40
2015,01,18,08,32,38.70
2015,01,18,08,33,33.90
2015,01,18,08,34,39.50
2015,01,18,08,35,32.80
2015,01,18,08,36,47.10
2015,01,18,08,37,30.60
2015,01,18,08,38,27.30
2015,01,18,08,39,38.80
2015,01,18,08,40,34.60
2015,01,18,08,41,34.30
2015,01,18,08,42,29.80
2015,01,18,08,43,26.90
2015,01,18,08,44,28.20
2015,01,18,08,45,32.40
2015,01,18,08,46,41.30
2015,01,18,08,47,31.30
2015,01,18,08,48,20.80
2015,01,18,08,49,26.20
2015,01,18,08,50,25.50
2015,01,18,08,51,33.40
2015,01,18,08,52,31.20
2015,01,18,08,53,30.60
2015,01,18,08,54,30.40
2015,01,18,08,55,35.80
2015,01,18,08,56,26.80
2015,01,18,08,57,23.30
2015,01,18,08,58,18.30
2015,01,18,08,59,32.90
2015,01,18,09,00,26.60
2015,01,18,09,01,22.30
2015,01,18,09,02,24.70
2015,01,18,09,03,27.90
2015,01,18,09,04,25.20
2015,01,18,09,05,21.70
2015,01,18,09,06,21.50
2015,01,18,09,07,28.80
2015,01,18,09,08,19.30
2015,01,18,09,09,20.20
2015,01,18,09,10,33.30
2015,01,18,09,11,27.30
2015,01,18,09,12,27.00
2015,01,18,09,13,27.70
2015,01,18,09,14,24.70
2015,01,18,09,15,33.00
2015,01,18,09,16,24.70
2015,01,18,09,17,16.20
2015,01,18,09,18,22.10
2015,01,18,09,19,23.30
2015,01,18,09,20,18.70
2015,01,18,09,21,33.30
2015,01,18,09,22,28.30
2015,01,18,09,23,20.50
2015,01,18,09,24,12.90
2015,01,18,09,25,15.20
2015,01,18,09,26,21.70
2015,01,18,09,27,11.00
2015,01,18,09,28,17.00
2015,01,18,09,29,14.40
2015,01,18,09,30,13.70
2015,01,18,09,31,15.00
2015,01,18,09,32,7.50
2015,01,18,09,33,17.30
2015,01,18,09,34,26.80
2015,01,18,09,35,12.90
2015,01,18,09,36,13.00
2015,01,18,09,37,16.90
2015,01,18,09,38,22.20
2015,01,18,09,39,17.60
2015,01,18,09,40,20.10
2015,01,18,09,41,29.40
2015,01,18,09,42,18.90
2015,01,18,09,43,15.40
2015,01,18,09,44,20.50
2015,01,18,09,45,12.90
2015,01,18,09,46,11.80
2015,01,18,09,47,17.70
2015,01,18,09,48,24.10
2015,01,18,09,49,17.30
2015,01,18,09,50,18.90
2015,01,18,09,51,15.70
2015,01,18,09,52,18.70
2015,01,18,09,53,22.50
2015,01,18,09,54,18.30
2015,01,18,09,55,15.20
2015,01,18,09,56,10.50
2015,01,18,09,57,16.80
2015,01,18,09,58,18.80
2015,01,18,09,59,21.20
2015,01,18,10,00,16.80
2015,01,18,10,01,18.80
2015,01,18,10,02,22.10
2015,01,18,10,03,21.40
2015,01,18,10,04,14.60
2015,01,18,10,05,26.60
2015,01,18,10,06,24.10
2015,01,18,10,07,26.40
2015,01,18,10,08,24.40
2015,01,18,10,09,33.00
2015,01,18,10,10,21.20
2015,01,18,10,11,22.90
2015,01,18,10,12,29.60
2015,01,18,10,13,17.60
2015,01,18,10,14,19.10
2015,01,18,10,15,19.10
2015,01,18,10,16,11.70
2015,01,18,10,17,12.20
2015,01,18,10,18,22.50
2015,01,18,10,19,21.60
2015,01,18,10,20,18.10
2015,01,18,10,21,21.50
2015,01,18,10,22,21.20
2015,01,18,10,23,17.60
2015,01,18,10,24,19.30
2015,01,18,10,25,23.90
2015,01,18,10,26,21.80
2015,01,18,10,27,18.90
2015,01,18,10,28,17.80
2015,01,18,10,29,24.90
2015,01,18,10,30,27.60
2015,01,18,10,31,24.20
2015,01,18,10,32,19.70
2015,01,18,10,33,22.50
2015,01,18,10,34,18.50
2015,01,18,10,35,15.70
2015,01,18,10,36,21.10
2015,01,18,10,37,13.20
2015,01,18,10,38,20.50
2015,01,18,10,39,23.10
2015,01,18,10,40,14.00
2015,01,18,10,41,16.20
2015,01,18,10,42,17.30
2015,01,18,10,43,10.80
2015,01,18,10,44,11.70
2015,01,18,10,45,17.80
2015,01,18,10,46,15.40
2015,01,18,10,47,18.10
2015,01,18,10,48,15.60
2015,01,18,10,49,15.70
2015,01,18,10,50,13.40
2015,01,18,10,51,10.50
2015,01,18,10,52,14.90
2015,01,18,10,53,17.20
2015,01,18,10,54,12.20
2015,01,18,10,55,18.70
2015,01,18,10,56,18.00
2015,01,18,10,57,16.00
2015,01,18,10,58,15.20
2015,01,18,10,59,21.20
2015,01,18,11,00,12.10
2015,01,18,11,01,14.30
2015,01,18,11,02,17.00
2015,01,18,11,03,12.10
2015,01,18,11,04,11.60
2015,01,18,11,05,13.50
2015,01,18,11,06,13.00
2015,01,18,11,07,13.60
2015,01,18,11,08,11.60
2015,01,18,11,09,11.60
2015,01,18,11,10,11.20
2015,01,18,11,11,10.60
2015,01,18,11,12,10.30
2015,01,18,11,13,8.60
2015,01,18,11,14,8.30
2015,01,18,11,15,11.10
2015,01,18,11,16,11.70
2015,01,18,11,17,8.60
2015,01,18,11,18,5.00
2015,01,18,11,19,8.40
2015,01,18,11,20,10.90
2015,01,18,11,21,10.20
2015,01,18,11,22,7.20
2015,01,18,11,23,13.20
2015,01,18,11,24,9.50
2015,01,18,11,25,9.40
2015,01,18,11,26,10.00
2015,01,18,11,27,11.20
2015,01,18,11,28,16.80
2015,01,18,11,29,18.90
2015,01,18,11,30,14.80
2015,01,18,11,31,17.50
2015,01,18,11,32,16.70
2015,01,18,11,33,10.20
2015,01,18,11,34,8.90
2015,01,18,11,35,13.70
2015,01,18,11,36,19.20
2015,01,18,11,37,17.10
2015,01,18,11,38,15.60
2015,01,18,11,39,10.50
2015,01,18,11,40,15.80
2015,01,18,11,41,15.10
2015,01,18,11,42,12.40
2015,01,18,11,43,12.40
2015,01,18,11,44,9.10
2015,01,18,11,45,10.40
2015,01,18,11,46,7.50
2015,01,18,11,47,10.80
2015,01,18,11,48,10.50
2015,01,18,11,49,9.20
2015,01,18,11,50,10.30
2015,01,18,11,51,11.90
2015,01,18,11,52,7.80
2015,01,18,11,53,10.10
2015,01,18,11,54,11.90
2015,01,18,11,55,13.30
2015,01,18,11,56,13.50
2015,01,18,11,57,9.40
2015,01,18,11,58,13.40
2015,01,18,11,59,13.50
2015,01,18,12,00,13.90
2015,01,18,12,01,16.30
2015,01,18,12,02,13.20
2015,01,18,12,03,13.10
2015,01,18,12,04,15.70
2015,01,18,12,05,14.60
2015,01,18,12,06,17.00
2015,01,18,12,07,13.00
2015,01,18,12,08,9.10
2015,01,18,12,09,12.10
2015,01,18,12,10,15.90
2015,01,18,12,11,12.60
2015,01,18,12,12,12.80
2015,01,18,12,13,12.30
2015,01,18,12,14,16.90
2015,01,18,12,15,14.40
2015,01,18,12,16,14.50
2015,01,18,12,17,12.70
2015,01,18,12,18,17.30
2015,01,18,12,19,12.90
2015,01,18,12,20,12.10
2015,01,18,12,21,9.30
2015,01,18,12,22,12.80
2015,01,18,12,23,15.70
2015,01,18,12,24,11.70
2015,01,18,12,25,15.30
2015,01,18,12,26,13.40
2015,01,18,12,27,10.50
2015,01,18,12,28,11.50
2015,01,18,12,29,15.30
2015,01,18,12,30,16.70
2015,01,18,12,31,15.90
2015,01,18,12,32,14.60
2015,01,18,12,33,13.70
2015,01,18,12,34,16.30
2015,01,18,12,35,15.50
2015,01,18,12,36,11.70
2015,01,18,12,37,12.90
2015,01,18,12,38,14.90
2015,01,18,12,39,15.40
2015,01,18,12,40,18.60
2015,01,18,12,41,20.20
2015,01,18,12,42,24.40
2015,01,18,12,43,13.70
2015,01,18,12,44,9.00
2015,01,18,12,45,13.20
2015,01,18,12,46,12.70
2015,01,18,12,47,15.40
2015,01,18,12,48,16.80
2015,01,18,12,49,17.60
2015,01,18,12,50,13.60
2015,01,18,12,51,13.60
2015,01,18,12,52,13.50
2015,01,18,12,53,8.70
2015,01,18,12,54,10.90
2015,01,18,12,55,12.50
2015,01,18,12,56,16.50
2015,01,18,12,57,12.90
2015,01,18,12,58,13.20
2015,01,18,12,59,15.90
2015,01,18,13,00,12.00
2015,01,18,13,01,16.10
2015,01,18,13,02,12.30
2015,01,18,13,03,14.00
2015,01,18,13,04,12.40
2015,01,18,13,05,10.10
2015,01,18,13,06,9.80
2015,01,18,13,07,16.90
2015,01,18,13,08,11.80
2015,01,18,13,09,16.80
2015,01,18,13,10,17.50
2015,01,18,13,11,15.90
2015,01,18,13,12,19.50
2015,01,18,13,13,14.60
2015,01,18,13,14,13.80
2015,01,18,13,15,16.40
2015,01,18,13,16,21.70
2015,01,18,13,17,23.50
2015,01,18,13,18,25.60
2015,01,18,13,19,19.00
2015,01,18,13,20,18.00
2015,01,18,13,21,18.80
2015,01,18,13,22,17.60
2015,01,18,13,23,26.00
2015,01,18,13,24,25.90
2015,01,18,13,25,21.70
2015,01,18,13,26,11.80
2015,01,18,13,27,17.40
2015,01,18,13,28,17.20
2015,01,18,13,29,17.30
2015,01,18,13,30,19.50
2015,01,18,13,31,21.00
2015,01,18,13,32,21.90
2015,01,18,13,33,18.10
2015,01,18,13,34,13.10
2015,01,18,13,35,21.70
2015,01,18,13,36,19.00
2015,01,18,13,37,15.70
2015,01,18,13,38,22.70
2015,01,18,13,39,21.90
2015,01,18,13,40,14.60
2015,01,18,13,41,17.60
2015,01,18,13,42,13.20
2015,01,18,13,43,14.90
2015,01,18,13,44,12.60
2015,01,18,13,45,14.20
2015,01,18,13,46,12.60
2015,01,18,13,47,11.60
2015,01,18,13,48,20.00
2015,01,18,13,49,17.90
2015,01,18,13,50,15.00
2015,01,18,13,51,17.30
2015,01,18,13,52,19.70
2015,01,18,13,53,19.70
2015,01,18,13,54,15.90
2015,01,18,13,55,16.90
2015,01,18,13,56,25.60
2015,01,18,13,57,26.40
2015,01,18,13,58,20.80
2015,01,18,13,59,19.50
2015,01,18,14,00,22.80
2015,01,18,14,01,16.30
2015,01,18,14,02,17.70
2015,01,18,14,03,12.50
2015,01,18,14,04,21.20
2015,01,18,14,05,19.40
2015,01,18,14,06,19.20
2015,01,18,14,07,14.30
2015,01,18,14,08,19.70
2015,01,18,14,09,21.80
2015,01,18,14,10,20.80
2015,01,18,14,11,16.50
2015,01,18,14,12,17.50
2015,01,18,14,13,20.90
2015,01,18,14,14,15.90
2015,01,18,14,15,10.60
2015,01,18,14,16,14.90
2015,01,18,14,17,19.70
2015,01,18,14,18,14.10
2015,01,18,14,19,7.50
2015,01,18,14,20,11.10
2015,01,18,14,21,8.00
2015,01,18,14,22,11.60
2015,01,18,14,23,14.40
2015,01,18,14,24,13.40
2015,01,18,14,25,12.10
2015,01,18,14,26,10.10
2015,01,18,14,27,9.70
2015,01,18,14,28,8.90
2015,01,18,14,29,9.30
2015,01,18,14,30,14.60
2015,01,18,14,31,11.20
2015,01,18,14,32,13.00
2015,01,18,14,33,13.80
2015,01,18,14,34,11.60
2015,01,18,14,35,13.20
2015,01,18,14,36,12.70
2015,01,18,14,37,12.40
2015,01,18,14,38,16.90
2015,01,18,14,39,9.70
2015,01,18,14,40,14.30
2015,01,18,14,41,12.80
2015,01,18,14,42,10.90
2015,01,18,14,43,15.10
2015,01,18,14,44,18.90
2015,01,18,14,45,17.60
2015,01,18,14,46,15.90
2015,01,18,14,47,17.50
2015,01,18,14,48,18.90
2015,01,18,14,49,20.80
2015,01,18,14,50,20.20
2015,01,18,14,51,17.10
2015,01,18,14,52,13.70
2015,01,18,14,53,17.50
2015,01,18,14,54,14.40
2015,01,18,14,55,16.20
2015,01,18,14,56,13.00
2015,01,18,14,57,13.50
2015,01,18,14,58,12.30
2015,01,18,14,59,13.00
2015,01,18,15,00,7.70
2015,01,18,15,01,9.60
2015,01,18,15,02,9.00
2015,01,18,15,03,11.80
2015,01,18,15,04,13.10
2015,01,18,15,05,12.60
2015,01,18,15,06,5.00
2015,01,18,15,07,7.50
2015,01,18,15,08,13.50
2015,01,18,15,09,12.20
2015,01,18,15,10,14.30
2015,01,18,15,11,17.00
2015,01,18,15,12,14.10
2015,01,18,15,13,13.30
2015,01,18,15,14,12.90
2015,01,18,15,15,9.10
2015,01,18,15,16,9.50
2015,01,18,15,17,7.50
2015,01,18,15,18,12.10
2015,01,18,15,19,13.80
2015,01,18,15,20,14.70
2015,01,18,15,21,9.90
2015,01,18,15,22,13.00
2015,01,18,15,23,13.00
2015,01,18,15,24,13.50
2015,01,18,15,25,11.70
2015,01,18,15,26,9.40
2015,01,18,15,27,9.20
2015,01,18,15,28,10.00
2015,01,18,15,29,8.50
2015,01,18,15,30,8.20
2015,01,18,15,31,6.30
2015,01,18,15,32,6.10
2015,01,18,15,33,3.10
2015,01,18,15,34,11.20
2015,01,18,15,35,10.70
2015,01,18,15,36,11.90
2015,01,18,15,37,8.90
2015,01,18,15,38,8.60
2015,01,18,15,39,6.10
2015,01,18,15,40,1.80
2015,01,18,15,41,4.20
2015,01,18,15,42,5.60
2015,01,18,15,43,8.60
2015,01,18,15,44,7.80
2015,01,18,15,45,7.00
2015,01,18,15,46,7.10
2015,01,18,15,47,9.20
2015,01,18,15,48,11.80
2015,01,18,15,49,11.70
2015,01,18,15,50,12.90
2015,01,18,15,51,9.70
2015,01,18,15,52,14.50
2015,01,18,15,53,17.30
2015,01,18,15,54,18.10
2015,01,18,15,55,14.90
2015,01,18,15,56,13.50
2015,01,18,15,57,13.10
2015,01,18,15,58,10.00
2015,01,18,15,59,15.10
2015,01,18,16,00,23.90
2015,01,18,16,01,21.10
2015,01,18,16,02,18.30
2015,01,18,16,03,21.90
2015,01,18,16,04,17.60
2015,01,18,16,05,17.20
2015,01,18,16,06,24.00
2015,01,18,16,07,24.50
2015,01,18,16,08,19.60
2015,01,18,16,09,21.60
2015,01,18,16,10,17.00
2015,01,18,16,11,12.50
2015,01,18,16,12,18.20
2015,01,18,16,13,19.00
2015,01,18,16,14,20.80
2015,01,18,16,15,21.30
2015,01,18,16,16,23.80
2015,01,18,16,17,20.40
2015,01,18,16,18,19.60
2015,01,18,16,19,17.80
2015,01,18,16,20,16.50
2015,01,18,16,21,17.60
2015,01,18,16,22,14.80
2015,01,18,16,23,15.90
2015,01,18,16,24,17.50
2015,01,18,16,25,20.60
2015,01,18,16,26,15.00
2015,01,18,16,27,18.60
2015,01,18,16,28,18.20
2015,01,18,16,29,16.70
2015,01,18,16,30,17.20
2015,01,18,16,31,17.80
2015,01,18,16,32,12.50
2015,01,18,16,33,11.20
2015,01,18,16,34,15.70
2015,01,18,16,35,13.20
2015,01,18,16,36,15.50
2015,01,18,16,37,12.90
2015,01,18,16,38,14.30
2015,01,18,16,39,12.70
2015,01,18,16,40,12.70
2015,01,18,16,41,13.30
2015,01,18,16,42,14.30
2015,01,18,16,43,10.50
2015,01,18,16,44,9.60
2015,01,18,16,45,10.90
2015,01,18,16,46,15.20
2015,01,18,16,47,15.00
2015,01,18,16,48,11.60
2015,01,18,16,49,12.70
2015,01,18,16,50,14.20
2015,01,18,16,51,15.70
2015,01,18,16,52,16.90
2015,01,18,16,53,11.40
2015,01,18,16,54,12.40
2015,01,18,16,55,11.40
2015,01,18,16,56,9.40
2015,01,18,16,57,11.70
2015,01,18,16,58,11.70
2015,01,18,16,59,11.40
2015,01,18,17,00,10.50
2015,01,18,17,01,9.30
2015,01,18,17,02,9.10
2015,01,18,17,03,8.90
2015,01,18,17,04,11.30
2015,01,18,17,05,10.90
2015,01,18,17,06,10.60
2015,01,18,17,07,11.10
2015,01,18,17,08,10.40
2015,01,18,17,09,14.20
2015,01,18,17,10,12.20
2015,01,18,17,11,16.60
2015,01,18,17,12,13.60
2015,01,18,17,13,11.70
2015,01,18,17,14,13.00
2015,01,18,17,15,11.30
2015,01,18,17,16,11.70
2015,01,18,17,17,10.80
2015,01,18,17,18,13.10
2015,01,18,17,19,10.50
2015,01,18,17,20,9.40
2015,01,18,17,21,7.20
2015,01,18,17,22,8.30
2015,01,18,17,23,9.80
2015,01,18,17,24,11.50
2015,01,18,17,25,8.50
2015,01,18,17,26,9.90
2015,01,18,17,27,9.10
2015,01,18,17,28,7.00
2015,01,18,17,29,7.80